Temp
51 51 51 50 51 51 51 50 50 50 51 50 50 51 51 51 51 51 51 50 50 50 51 52 52 53 52 52 51 50 49 49 51 51 50 50 49 49 48 48 47 47
51 50 49 49 49 49 50 50 50 50 50 50 50 49 49 49 50 50 50 50 49 49 49 50 51 52 52 51 50 49 48 47 48 48 48 46 47 47 48 47 48 48
50 49 49 49 50 49 49 49 49 49 50 50 49 49 49 49 49 49 50 50 49 48 48 48 49 50 50 50 49 48 47 46 47 45 45 46 46 45 45 45 45 46
50 50 50 50 49 49 48 48 47 47 48 48 48 48 49 48 49 47 47 46 47 45 45 45 46 46 48 48 48 46 46 46 46 45 44 43 42 43 43 42 42 41
49 49 49 49 49 48 48 48 48 47 47 48 47 47 47 46 45 43 43 43 43 43 42 42 43 43 43 44 45 45 42 42 42 42 41 41 40 41 41 40 40 40
48 49 49 48 48 47 47 47 48 47 47 44 47 46 45 45 44 43 43 42 41 41 41 41 41 41 41 41 41 42 41 41 41 42 41 41 40 39 39 39 39 39
46 46 45 46 45 45 46 46 46 45 45 45 41 42 41 44 44 44 44 43 42 41 41 41 40 40 40 40 40 40 40 41 40 41 41 40 39 38 37 38 38 38
44 43 45 43 43 43 43 43 42 42 42 39 41 41 42 44 44 44 43 43 43 42 41 41 40 41 39 39 40 40 40 41 40 40 40 39 38 38 37 37 37 37
43 42 43 42 41 41 41 41 40 39 38 41 40 40 40 43 43 43 43 42 42 42 41 40 40 39 38 39 39 40 40 40 41 40 40 39 38 38 37 37 36 36
41 42 40 41 41 41 40 39 39 38 37 40 40 40 40 40 42 42 41 41 41 40 40 40 40 39 38 38 39 40 40 40 39 39 40 40 40 39 38 37 36 35
40 39 40 40 41 40 40 38 38 38 37 39 38 38 39 40 40 41 40 40 40 40 39 39 39 39 39 39 39 39 40 40 39 39 39 39 40 39 38 37 37 36
40 39 40 41 40 39 38 38 37 38 38 37 38 39 37 38 40 39 40 40 40 40 40 40 40 39 39 39 39 39 39 38 38 38 38 38 38 38 37 37 36 35
40 40 40 40 39 39 37 37 38 37 38 38 37 38 38 37 37 39 39 40 40 40 40 40 39 39 39 39 39 39 39 38 38 38 37 37 37 37 37 36 36 35
41 39 39 39 38 38 38 38 38 37 38 37 36 37 37 37 37 38 39 39 39 39 39 39 39 39 39 39 39 39 38 37 37 36 36 37 37 37 36 36 36 35
41 39 38 38 38 38 38 38 38 38 37 37 36 36 37 36 36 37 37 37 38 38 38 38 38 38 39 39 38 38 38 38 37 37 37 36 36 36 36 37 36 36
40 39 39 38 38 38 38 38 37 37 37 36 36 36 36 35 35 35 36 36 36 37 38 37 37 38 37 39 39 38 38 38 37 37 37 37 36 35 36 36 37 36
39 39 38 38 39 38 37 37 37 36 36 35 35 35 35 34 35 35 35 36 37 37 37 37 37 37 38 40 40 40 38 37 37 37 37 36 36 36 35 36 36 36
39 39 38 39 38 38 37 36 36 36 36 35 34 34 34 34 34 35 36 37 37 37 37 37 37 37 39 40 40 40 38 37 37 36 36 37 36 36 36 36 35 34
38 38 38 38 38 37 36 35 35 36 35 34 34 34 33 33 34 35 36 36 36 36 36 36 36 38 39 39 40 40 40 38 36 36 36 36 36 36 35 35 34 33
37 37 37 37 36 35 35 35 35 35 35 34 34 32 33 33 34 35 36 36 36 36 36 36 36 37 39 40 40 40 40 39 36 36 36 36 36 36 35 35 34 33
37 37 37 36 35 35 35 35 35 34 33 33 33 33 33 33 34 35 35 35 35 35 35 35 35 38 40 40 40 41 41 39 35 35 35 35 36 36 35 35 35 35
36 36 36 35 34 34 34 34 34 34 33 31 31 30 31 33 34 35 34 34 34 34 34 33 34 38 39 39 39 40 41 36 35 34 34 34 34 35 35 35 35 35
36 36 35 34 34 34 34 34 33 31 31 30 31 30 31 32 33 34 34 34 33 33 33 33 33 36 38 38 39 40 38 34 34 34 33 32 32 34 34 34 35 35
35 35 35 34 33 33 33 33 32 31 31 30 31 29 30 31 32 33 33 33 33 33 33 32 32 34 37 38 38 40 37 34 34 33 32 32 31 33 33 33 34 33
34 34 34 33 33 33 33 32 31 30 29 29 29 30 29 30 32 32 32 32 32 33 33 32 32 33 37 37 38 39 37 34 34 33 31 30 30 30 31 31 32 33
33 33 33 33 33 31 31 31 29 27 27 28 27 29 29 30 32 32 31 31 32 32 32 32 32 33 35 38 38 38 37 34 33 32 30 29 30 29 29 29 30 31
MSLP
1016.24 1016.42 1016.50 1016.66 1016.66 1016.76 1016.88 1017.10 1017.26 1017.38 1017.46 1017.62 1017.68 1017.80 1018.04 1018.24 1018.54 1018.68 1018.82 1018.94 1018.92 1018.90 1018.88 1018.92 1019.10 1019.34 1019.60 1019.86 1020.06 1020.22 1020.34 1020.50 1020.76 1021.02 1021.42 1021.84 1022.14 1022.34 1022.68 1022.96 1023.18 1023.30
1015.90 1016.10 1016.26 1016.40 1016.48 1016.58 1016.58 1016.58 1016.72 1016.92 1017.04 1017.20 1017.34 1017.50 1017.70 1017.98 1018.24 1018.50 1018.66 1018.76 1018.84 1018.84 1018.86 1018.90 1018.98 1019.08 1019.26 1019.50 1019.74 1020.06 1020.38 1020.50 1020.56 1020.72 1021.14 1021.52 1021.70 1021.98 1022.16 1022.30 1022.50 1022.72
1015.74 1015.92 1016.00 1016.00 1016.02 1016.16 1016.30 1016.48 1016.58 1016.72 1016.78 1016.86 1017.10 1017.24 1017.38 1017.56 1017.82 1018.12 1018.40 1018.60 1018.72 1018.76 1018.80 1018.82 1018.90 1018.90 1019.00 1019.16 1019.38 1019.66 1019.92 1020.14 1020.24 1020.50 1020.92 1021.14 1021.38 1021.66 1021.68 1021.94 1022.30 1022.46
1015.38 1015.40 1015.50 1015.60 1015.76 1015.90 1016.14 1016.30 1016.40 1016.48 1016.56 1016.66 1016.74 1016.92 1017.08 1017.28 1017.46 1017.72 1018.02 1018.34 1018.54 1018.66 1018.74 1018.80 1018.76 1018.82 1018.84 1018.94 1019.20 1019.50 1019.62 1019.58 1019.60 1020.16 1020.60 1020.94 1021.22 1021.40 1021.64 1021.88 1022.06 1022.34
1014.98 1015.14 1015.26 1015.38 1015.56 1015.78 1015.98 1016.02 1015.98 1016.08 1016.14 1016.20 1016.48 1016.70 1016.92 1017.14 1017.32 1017.52 1017.78 1018.10 1018.42 1018.60 1018.78 1018.82 1018.88 1018.88 1018.90 1018.98 1019.12 1019.36 1019.50 1019.46 1019.82 1020.24 1020.60 1020.86 1021.06 1021.24 1021.40 1021.68 1021.86 1022.04
1014.72 1014.82 1014.98 1015.16 1015.34 1015.58 1015.68 1015.66 1015.72 1015.94 1016.06 1016.14 1016.14 1016.42 1016.60 1016.84 1017.06 1017.28 1017.58 1017.90 1018.26 1018.46 1018.62 1018.78 1018.88 1018.98 1019.10 1019.16 1019.36 1019.24 1019.28 1019.48 1019.80 1020.06 1020.30 1020.52 1020.86 1021.18 1021.38 1021.56 1021.72 1021.98
1014.28 1014.58 1014.72 1014.96 1015.14 1015.24 1015.30 1015.36 1015.52 1015.74 1015.94 1016.02 1016.16 1016.16 1016.42 1016.62 1016.80 1016.96 1017.24 1017.50 1017.86 1018.18 1018.36 1018.54 1018.74 1018.90 1019.10 1019.26 1019.32 1019.26 1019.36 1019.48 1019.78 1020.02 1020.12 1020.40 1020.70 1021.06 1021.38 1021.52 1021.66 1021.80
1013.96 1014.22 1014.40 1014.68 1014.80 1014.92 1015.02 1015.16 1015.32 1015.48 1015.70 1016.06 1016.12 1016.12 1016.22 1016.28 1016.50 1016.78 1017.02 1017.28 1017.50 1017.76 1018.08 1018.34 1018.56 1018.68 1018.90 1019.02 1019.04 1019.14 1019.28 1019.48 1019.64 1019.82 1020.04 1020.30 1020.62 1020.86 1021.28 1021.50 1021.58 1021.76
1013.74 1013.84 1014.02 1014.20 1014.38 1014.56 1014.76 1014.94 1015.14 1015.32 1015.58 1015.72 1015.98 1016.20 1016.26 1016.06 1016.24 1016.54 1016.82 1017.10 1017.26 1017.44 1017.72 1018.02 1018.24 1018.46 1018.66 1018.76 1018.86 1018.94 1019.06 1019.32 1019.38 1019.54 1019.72 1020.02 1020.40 1020.60 1020.96 1021.32 1021.62 1021.76
1013.76 1013.60 1013.74 1013.76 1013.88 1014.06 1014.36 1014.64 1014.92 1015.08 1015.30 1015.44 1015.66 1016.00 1016.16 1016.24 1016.16 1016.30 1016.62 1016.88 1017.06 1017.28 1017.50 1017.72 1018.02 1018.24 1018.48 1018.64 1018.68 1018.78 1018.94 1019.08 1019.22 1019.40 1019.42 1019.54 1019.80 1020.20 1020.70 1021.08 1021.20 1021.64
1013.96 1013.84 1013.52 1013.38 1013.34 1013.64 1013.88 1014.32 1014.60 1014.84 1015.10 1015.18 1015.52 1015.80 1016.04 1016.26 1016.32 1016.32 1016.48 1016.76 1016.96 1017.14 1017.38 1017.56 1017.74 1017.98 1018.16 1018.34 1018.50 1018.62 1018.70 1018.78 1018.98 1019.20 1019.30 1019.36 1019.50 1019.80 1020.22 1020.62 1020.98 1021.18
1013.66 1013.86 1013.46 1013.06 1013.12 1013.30 1013.48 1013.88 1014.22 1014.48 1014.74 1015.04 1015.28 1015.52 1015.88 1016.14 1016.20 1016.34 1016.38 1016.54 1016.74 1016.92 1017.10 1017.28 1017.48 1017.68 1017.82 1017.96 1018.14 1018.34 1018.52 1018.68 1018.88 1019.02 1019.16 1019.36 1019.54 1019.74 1020.08 1020.44 1020.76 1021.20
1013.20 1013.30 1013.38 1013.34 1013.20 1013.20 1013.40 1013.62 1013.86 1014.12 1014.38 1014.62 1015.04 1015.26 1015.52 1015.82 1016.14 1016.18 1016.26 1016.28 1016.42 1016.64 1016.82 1017.02 1017.26 1017.44 1017.56 1017.70 1017.90 1018.12 1018.34 1018.54 1018.74 1018.90 1019.08 1019.32 1019.50 1019.66 1019.92 1020.24 1020.60 1021.06
1012.54 1012.90 1013.26 1013.30 1013.34 1013.36 1013.26 1013.30 1013.56 1013.84 1014.08 1014.40 1014.78 1015.00 1015.24 1015.46 1015.74 1016.00 1016.12 1016.18 1016.20 1016.36 1016.50 1016.72 1016.96 1017.18 1017.36 1017.54 1017.72 1017.90 1018.14 1018.30 1018.44 1018.68 1018.96 1019.22 1019.50 1019.78 1019.96 1020.16 1020.44 1020.88
1012.12 1012.50 1012.76 1012.98 1013.06 1013.12 1013.10 1013.12 1013.30 1013.56 1013.90 1014.18 1014.46 1014.70 1015.02 1015.20 1015.50 1015.78 1016.00 1016.10 1016.16 1016.22 1016.36 1016.52 1016.68 1016.84 1017.00 1017.18 1017.40 1017.64 1017.82 1018.00 1018.20 1018.42 1018.68 1019.02 1019.36 1019.74 1020.06 1020.22 1020.46 1020.76
1011.84 1012.12 1012.32 1012.58 1012.76 1012.64 1012.74 1012.92 1013.08 1013.36 1013.68 1013.96 1014.20 1014.48 1014.78 1015.10 1015.40 1015.68 1015.84 1015.94 1016.08 1016.20 1016.26 1016.40 1016.50 1016.58 1016.64 1016.76 1016.98 1017.24 1017.58 1017.80 1018.04 1018.26 1018.50 1018.80 1019.16 1019.54 1019.90 1020.14 1020.28 1020.50
1011.50 1011.68 1011.98 1012.20 1012.10 1012.34 1012.52 1012.64 1012.80 1013.14 1013.46 1013.74 1014.04 1014.36 1014.62 1014.94 1015.20 1015.46 1015.72 1015.88 1015.94 1016.04 1016.14 1016.22 1016.26 1016.28 1016.36 1016.56 1016.78 1017.06 1017.36 1017.60 1017.76 1018.02 1018.24 1018.54 1018.86 1019.14 1019.52 1019.84 1020.18 1020.52
1010.76 1011.14 1011.58 1011.64 1011.86 1011.90 1012.16 1012.44 1012.70 1012.94 1013.22 1013.54 1013.86 1014.16 1014.44 1014.70 1014.88 1015.12 1015.40 1015.58 1015.72 1015.82 1015.88 1015.94 1015.98 1016.00 1016.14 1016.32 1016.56 1016.80 1017.08 1017.34 1017.58 1017.76 1017.98 1018.22 1018.54 1018.84 1019.18 1019.60 1020.04 1020.48
1010.82 1010.96 1011.04 1011.28 1011.46 1011.74 1012.14 1012.44 1012.54 1012.76 1013.02 1013.40 1013.62 1013.88 1014.24 1014.40 1014.56 1014.86 1015.10 1015.32 1015.46 1015.62 1015.72 1015.74 1015.76 1015.86 1016.10 1016.30 1016.52 1016.72 1016.92 1017.18 1017.46 1017.60 1017.78 1018.04 1018.32 1018.62 1019.02 1019.50 1019.98 1020.44
1010.68 1010.84 1010.88 1010.94 1011.26 1011.60 1011.90 1012.10 1012.28 1012.36 1012.74 1013.14 1013.52 1013.90 1014.00 1014.18 1014.42 1014.62 1014.86 1015.06 1015.16 1015.28 1015.34 1015.40 1015.50 1015.66 1015.88 1016.12 1016.34 1016.56 1016.78 1017.06 1017.38 1017.58 1017.74 1017.98 1018.24 1018.56 1018.94 1019.32 1019.70 1020.12
1010.36 1010.46 1010.54 1010.76 1011.04 1011.34 1011.60 1011.72 1011.86 1012.18 1012.60 1013.02 1013.34 1013.54 1013.74 1013.92 1014.16 1014.48 1014.70 1014.86 1015.00 1015.06 1015.14 1015.24 1015.36 1015.44 1015.56 1015.78 1016.06 1016.34 1016.58 1016.90 1017.26 1017.50 1017.72 1017.92 1018.14 1018.42 1018.70 1019.02 1019.42 1019.82
1010.22 1010.28 1010.40 1010.64 1010.88 1011.14 1011.30 1011.42 1011.66 1011.96 1012.34 1012.92 1013.22 1013.46 1013.60 1013.76 1014.00 1014.20 1014.46 1014.68 1014.82 1014.94 1015.06 1015.16 1015.32 1015.34 1015.44 1015.68 1015.96 1016.24 1016.44 1016.80 1017.16 1017.40 1017.64 1017.90 1018.14 1018.40 1018.72 1018.98 1019.26 1019.58
1010.06 1010.12 1010.28 1010.48 1010.72 1010.88 1010.96 1011.12 1011.48 1012.02 1012.38 1012.82 1013.04 1013.32 1013.48 1013.66 1013.80 1014.02 1014.28 1014.50 1014.68 1014.82 1014.88 1015.06 1015.26 1015.30 1015.40 1015.58 1015.76 1016.00 1016.30 1016.74 1017.00 1017.34 1017.66 1017.94 1018.18 1018.48 1018.80 1019.06 1019.26 1019.50
1009.84 1009.96 1010.06 1010.32 1010.58 1010.52 1010.66 1011.08 1011.56 1011.92 1012.18 1012.62 1012.66 1013.10 1013.34 1013.50 1013.70 1013.96 1014.20 1014.34 1014.48 1014.64 1014.76 1014.96 1015.18 1015.24 1015.34 1015.50 1015.64 1015.76 1016.06 1016.42 1016.72 1017.08 1017.60 1017.96 1018.38 1018.68 1018.96 1019.26 1019.44 1019.68
1009.50 1009.64 1009.74 1009.94 1010.06 1010.26 1010.64 1011.02 1011.40 1011.68 1012.12 1012.54 1012.66 1012.92 1013.16 1013.50 1013.72 1013.92 1014.20 1014.36 1014.44 1014.52 1014.66 1014.84 1015.04 1015.14 1015.20 1015.36 1015.48 1015.62 1015.88 1016.24 1016.50 1016.92 1017.46 1017.96 1018.34 1018.80 1019.08 1019.34 1019.70 1019.98
1009.44 1009.38 1009.40 1009.48 1009.78 1010.28 1010.70 1010.94 1011.46 1011.92 1012.28 1012.54 1012.82 1013.00 1013.26 1013.52 1013.72 1013.92 1014.14 1014.36 1014.44 1014.52 1014.60 1014.72 1014.88 1014.98 1015.06 1015.18 1015.34 1015.54 1015.82 1016.14 1016.40 1016.80 1017.26 1017.84 1018.24 1018.62 1019.14 1019.46 1019.68 1020.04
Wind_Speed
10 9 10 10 10 9 10 10 9 10 10 9 10 9 10 9 8 9 9 8 8 8 8 8 9 10 10 9 10 10 10 11 11 10 11 11 11 11 11 11 10 10
11 10 9 8 8 8 9 9 10 10 10 10 9 8 8 8 9 9 10 10 8 9 7 7 8 10 10 10 10 10 9 9 11 9 11 12 13 13 14 14 14 12
9 9 10 11 11 10 9 8 8 8 8 9 8 8 8 8 9 9 9 9 9 9 8 7 8 9 9 10 10 10 10 10 11 8 9 12 11 11 12 12 10 12
11 11 11 11 10 9 8 8 7 7 7 8 9 8 8 7 8 10 9 10 9 8 8 7 8 7 8 9 9 9 10 10 10 9 10 8 8 9 10 8 9 8
11 11 10 9 8 7 7 9 10 8 9 8 7 7 8 7 7 8 8 8 7 7 6 7 6 6 6 6 8 9 8 7 6 7 7 8 7 8 8 9 9 10
9 9 9 9 8 8 9 9 9 8 8 6 8 7 7 7 8 9 9 9 8 7 7 7 7 6 6 5 5 6 7 7 7 8 9 9 8 6 6 8 9 10
10 9 9 8 7 8 9 9 7 7 7 7 5 7 7 8 8 8 9 9 9 9 9 8 8 7 6 6 6 6 5 7 6 7 8 7 7 6 5 8 9 10
9 7 8 8 8 8 9 9 8 8 7 5 7 7 7 9 9 7 7 8 9 9 9 8 8 8 7 7 7 7 7 7 7 8 8 7 7 8 7 7 8 9
8 9 8 9 10 9 9 8 7 7 6 8 7 6 7 8 9 8 8 8 8 8 8 8 8 7 6 7 7 9 9 8 8 9 10 9 9 9 9 8 8 9
9 8 9 10 11 9 9 7 7 7 6 7 7 7 8 7 7 8 8 8 8 8 8 8 8 7 7 7 9 9 9 9 8 8 9 10 11 10 10 10 11 10
9 8 10 11 11 8 9 8 7 7 6 7 7 7 6 6 6 6 7 8 8 8 8 8 8 8 9 8 8 8 8 8 8 8 8 9 10 10 10 11 11 12
10 8 11 12 10 9 9 8 8 8 8 7 7 8 6 6 7 7 7 8 8 8 8 9 8 8 9 9 9 8 7 6 6 7 7 7 8 8 10 10 10 9
10 11 10 9 9 8 7 7 8 8 8 8 7 8 8 7 6 7 7 8 8 8 8 8 8 8 8 8 7 7 8 8 8 7 7 7 7 8 9 9 9 9
11 9 8 9 7 6 8 8 8 8 8 7 7 8 8 8 8 8 7 7 8 8 8 7 7 7 7 7 7 8 8 8 8 8 7 7 6 7 8 10 10 10
8 7 7 8 8 7 8 8 8 8 7 7 7 8 7 8 7 7 8 7 6 7 7 7 8 8 7 8 8 8 8 9 9 9 9 8 7 7 7 8 8 9
8 7 8 8 8 10 9 8 8 8 8 8 8 8 7 7 6 7 7 8 8 7 7 7 7 6 9 13 10 8 8 7 7 8 8 8 8 8 8 8 9 9
8 9 8 9 10 8 8 8 8 7 8 7 7 7 8 7 7 8 7 7 8 8 8 7 7 7 12 12 13 12 9 8 9 8 8 8 9 10 10 10 8 7
10 9 9 10 8 10 8 7 7 7 8 8 7 8 7 7 8 8 8 8 7 8 8 8 7 8 12 13 13 13 10 9 8 7 8 9 9 9 8 9 9 9
7 8 9 9 9 7 6 6 7 7 8 7 9 8 7 8 8 8 8 8 8 9 8 8 7 10 12 14 14 14 13 10 6 7 8 8 9 9 9 9 9 9
7 8 9 8 6 6 7 8 8 9 8 7 6 6 8 8 7 8 8 8 9 9 8 7 7 10 15 16 15 15 14 10 6 7 7 8 9 10 9 11 12 12
8 8 8 7 7 7 8 8 9 7 7 7 8 9 9 9 9 8 7 7 7 7 6 6 6 10 14 14 14 15 15 11 6 6 6 7 9 10 11 12 12 12
8 8 7 6 7 7 8 8 7 8 9 7 7 6 5 5 5 6 7 7 7 7 6 6 5 11 12 13 13 14 14 8 7 7 7 7 8 9 9 10 11 12
7 8 7 7 7 8 8 8 7 7 6 6 7 7 7 7 7 7 6 7 7 7 7 6 5 10 13 13 13 15 10 7 8 7 7 7 7 8 8 9 10 11
6 7 7 7 7 8 7 6 6 5 7 7 9 8 8 7 6 6 6 6 8 8 7 7 6 8 13 13 13 15 10 8 7 7 7 7 6 7 7 7 9 13
7 7 8 8 7 7 7 8 8 8 6 6 6 6 6 6 6 6 5 5 6 6 8 7 6 8 14 15 15 17 11 7 7 7 8 7 7 6 5 6 7 8
6 7 7 7 8 6 6 7 5 5 6 6 5 6 6 5 5 5 6 5 5 6 6 6 6 6 10 15 15 15 12 7 6 8 9 9 8 9 8 6 7 7
Wind_Direction
200 198 204 206 211 207 204 205 205 208 210 206 209 207 206 208 202 205 212 213 210 206 204 197 194 197 198 198 198 195 191 194 196 193 196 198 208 206 207 208 207 204
205 202 205 209 214 210 212 204 206 206 209 207 210 203 201 191 198 199 209 213 209 209 202 199 197 198 195 192 191 191 193 194 196 191 194 198 205 205 210 209 207 204
205 206 207 209 212 212 209 208 207 208 208 208 203 198 197 191 190 195 202 210 213 212 207 200 199 201 196 195 192 192 191 191 196 192 194 204 204 204 210 204 206 205
210 210 211 216 215 214 206 206 211 206 206 204 204 198 192 190 187 190 196 203 210 213 212 206 204 199 196 193 189 195 196 195 196 186 197 203 203 202 205 192 193 192
208 212 215 217 217 212 205 213 215 208 205 205 196 193 192 186 188 188 189 195 201 210 210 213 212 209 201 194 188 189 193 189 182 176 188 200 203 196 194 180 184 189
213 211 211 212 209 204 212 216 218 214 213 202 200 189 195 188 190 188 186 190 196 199 203 207 208 211 200 197 195 197 185 184 188 181 189 196 194 193 178 183 178 180
208 204 210 207 211 211 215 217 214 211 213 212 189 200 184 193 195 192 189 190 189 195 199 199 200 201 199 192 196 196 190 191 184 188 191 195 180 184 178 175 177 176
207 203 203 203 209 214 218 215 212 209 206 205 211 208 188 192 193 189 190 189 190 195 197 196 198 198 191 188 191 196 199 193 187 186 189 184 178 183 177 181 174 170
203 205 199 206 209 214 216 211 210 208 195 202 210 210 207 194 187 185 187 188 193 195 191 192 194 194 190 188 197 198 198 197 191 186 185 179 183 187 180 172 171 173
219 209 201 207 212 212 211 207 202 203 192 202 204 199 203 208 188 184 184 188 193 192 190 189 189 190 187 195 198 198 198 197 193 195 190 185 188 185 177 174 178 172
234 220 213 212 214 204 209 197 201 198 194 198 192 200 206 193 198 183 184 187 192 190 188 191 192 188 190 197 202 202 201 196 192 192 191 190 189 185 179 178 178 178
231 227 226 219 211 206 200 194 194 196 195 199 185 194 196 199 189 189 188 190 192 192 191 195 191 191 195 198 199 196 194 193 190 188 189 188 187 178 175 176 174 171
226 227 230 229 219 210 193 191 193 193 191 196 187 192 189 191 198 191 195 189 193 189 193 191 191 193 198 198 193 189 189 189 188 187 185 186 187 178 173 172 170 165
227 222 226 228 224 212 204 198 192 192 194 187 179 191 191 191 190 192 194 192 191 190 191 186 186 192 196 193 188 187 188 191 185 181 180 182 181 178 174 174 172 168
222 217 217 219 214 211 208 202 194 192 189 186 187 193 190 192 187 186 186 196 191 188 185 182 186 193 191 189 187 189 190 188 184 181 178 177 172 172 177 175 169 169
214 213 211 210 210 211 208 197 190 188 186 191 194 191 188 182 181 189 193 192 188 189 185 186 194 195 194 190 186 183 184 184 177 179 176 173 169 168 174 179 178 174
203 215 204 210 213 207 202 195 190 182 185 191 189 185 185 179 178 189 193 192 192 188 189 195 198 198 192 187 186 181 179 179 178 177 173 171 173 172 176 177 172 166
209 203 203 215 205 210 200 193 182 184 189 188 183 185 185 175 185 189 189 190 191 193 195 197 201 196 186 186 180 174 172 177 176 173 175 177 177 176 173 166 160 154
213 205 210 210 211 202 189 182 187 190 193 185 191 188 172 181 189 183 192 189 188 191 198 198 202 195 187 187 189 181 172 172 175 178 176 179 176 174 166 162 157 152
207 209 213 211 195 187 184 187 187 196 191 190 180 172 181 186 185 188 187 189 189 190 194 196 195 191 191 192 191 187 180 171 182 180 180 177 177 173 166 163 162 158
209 208 211 201 190 186 187 191 190 185 183 184 180 183 183 185 184 187 191 188 189 187 186 187 191 185 188 187 186 186 184 172 175 172 173 177 175 173 170 167 163 161
204 208 206 194 187 187 189 191 185 182 184 180 178 184 184 173 183 182 181 182 182 178 175 185 183 183 184 185 185 190 182 170 175 176 176 175 172 170 168 164 163 162
203 201 201 192 187 187 192 187 178 181 182 167 171 177 175 179 181 178 179 176 175 179 177 180 179 184 178 177 180 188 166 169 166 169 168 169 169 162 164 163 164 165
199 194 193 190 186 192 188 182 180 176 174 172 173 174 179 181 170 168 174 177 176 180 180 175 183 185 183 183 182 192 181 169 163 157 161 156 151 152 153 161 166 162
190 189 188 185 187 187 178 177 180 178 168 166 168 163 168 159 160 161 165 170 175 170 169 170 176 186 186 187 187 194 177 168 161 155 152 156 148 143 142 152 156 159
190 187 185 180 184 177 176 175 154 139 150 154 155 150 149 154 156 158 159 163 160 162 172 174 172 183 187 190 189 191 162 158 153 155 159 154 151 146 141 144 150 151